Weather in Tlyarata

Russia / Republic of Dagestan     42°06′19″N   46°21′23″E
temp.,
°C
wind,
m/s
gust,
m/s
humid.,
%
clouds,
%
prec.,
mm/h
press.,
hPa
HPBL,
m
6 march, sat
sat600:00−10ene22280 0.0 102121
03:00−10ene22510 0.0 102121
06:00−10ene33650 0.0 102122
09:00−3sse22590 0.0 1020174
12:00−2s33730 0.0 1017246
15:00−2s22700 0.0 1015206
18:00−7se224367 0.0 101522
21:00−6sse223981 0.0 101522
7 march, sun
sun700:00−8sse224772 0.0 101421
03:00−6sse225586 0.0 101422
06:00−6sse2257100 0.0 101622
09:00−3ssw376784 0.0 1017794
12:00−3ssw56863 0.0 1017698
15:00−4ssw559245 0.2 1017521
18:00−8se2390100 0.1 101927
21:00−8sse3379100 0.1 102227
8 march, mon
mon800:00−10ssw3398100 2.1 102272
03:00−10ssw2298100 3.7 102258
06:00−11s1197100 0.7 102227
09:00−9ssw3396100 1.2 1020196
12:00−7ssw3397100 0.8 1018249
15:00−7sw3397100 1.6 1015202
18:00−8w1197100 1.3 101524
21:00−9sw1297100 2.8 101633
9 march, tue
tue900:00−10ssw1197100 1.9 101627
03:00−14ese019999 2.2 101622
06:00−15ese119858 0.1 101722
09:00−9s339657 0.1 1017280
12:00−9s449599 0.3 1016428
15:00−9ssw559699 0.6 1015550
18:00−15se229381 0.1 101723
21:00−15sse335341 0.1 102121
10 march, wed
wed1000:00−16se33580 0.0 102222
03:00−16se33540 0.0 102321
06:00−16se33510 0.0 102321
09:00−9s34591 0.0 1023328
12:00−8ssw457767 0.0 1021800
15:00−8ssw448363 0.1 1019598
18:00−13s228999 0.0 102023
21:00−13s228596 0.0 102022